TimeMST,TemperatureF,Dew PointF,Humidity,Sea Level PressureIn,VisibilityMPH,Wind Direction,Wind SpeedMPH,Gust SpeedMPH,PrecipitationIn,Events,Conditions,WindDirDegrees,DateUTC
12:15 AM,28.4,17.6,64,-9999,10.0,NW,6.9,-,N/A,,Clear,320,2013-11-26 07:15:00
12:35 AM,28.4,17.6,64,-9999,10.0,NW,6.9,-,N/A,,Clear,320,2013-11-26 07:35:00
12:55 AM,28.4,15.8,59,-9999,10.0,NNW,10.4,-,N/A,,Clear,330,2013-11-26 07:55:00
1:15 AM,26.6,15.8,64,-9999,10.0,North,9.2,-,N/A,,Clear,10,2013-11-26 08:15:00
1:35 AM,26.6,15.8,64,-9999,10.0,North,10.4,-,N/A,,Clear,360,2013-11-26 08:35:00
1:55 AM,26.6,17.6,69,-9999,10.0,NNW,13.8,-,N/A,,Clear,340,2013-11-26 08:55:00
2:15 AM,26.6,15.8,64,-9999,10.0,WNW,5.8,-,N/A,,Clear,300,2013-11-26 09:15:00
2:35 AM,28.4,15.8,59,-9999,10.0,WNW,4.6,-,N/A,,Clear,290,2013-11-26 09:35:00
2:55 AM,28.4,15.8,59,-9999,10.0,NNW,9.2,-,N/A,,Clear,340,2013-11-26 09:55:00
3:15 AM,26.6,15.8,64,-9999,10.0,North,8.1,-,N/A,,Clear,360,2013-11-26 10:15:00
3:35 AM,26.6,15.8,64,30.29,10.0,NNW,5.8,-,N/A,,Clear,340,2013-11-26 10:35:00
3:55 AM,28.4,17.6,64,-9999,10.0,West,3.5,-,N/A,,Clear,260,2013-11-26 10:55:00
4:15 AM,26.6,15.8,64,-9999,10.0,WSW,5.8,-,N/A,,Clear,240,2013-11-26 11:15:00
4:35 AM,28.4,17.6,64,-9999,10.0,SSW,4.6,-,N/A,,Clear,210,2013-11-26 11:35:00
4:55 AM,26.6,17.6,69,-9999,10.0,SSW,4.6,-,N/A,,Clear,200,2013-11-26 11:55:00
5:15 AM,24.8,17.6,74,-9999,10.0,WSW,5.8,-,N/A,,Clear,240,2013-11-26 12:15:00
5:35 AM,26.6,17.6,69,-9999,10.0,WSW,9.2,-,N/A,,Clear,240,2013-11-26 12:35:00
5:55 AM,26.6,17.6,69,-9999,10.0,SW,10.4,-,N/A,,Clear,220,2013-11-26 12:55:00
6:15 AM,26.6,17.6,69,-9999,10.0,WSW,11.5,-,N/A,,Clear,240,2013-11-26 13:15:00
6:35 AM,26.6,17.6,69,-9999,10.0,WSW,9.2,-,N/A,,Clear,240,2013-11-26 13:35:00
6:55 AM,26.6,17.6,69,-9999,10.0,WSW,11.5,-,N/A,,Clear,240,2013-11-26 13:55:00
7:15 AM,26.6,17.6,69,-9999,10.0,SW,8.1,-,N/A,,Clear,230,2013-11-26 14:15:00
7:35 AM,28.4,17.6,64,-9999,10.0,WSW,10.4,-,N/A,,Clear,240,2013-11-26 14:35:00
7:55 AM,28.4,17.6,64,-9999,10.0,WSW,10.4,-,N/A,,Clear,240,2013-11-26 14:55:00
8:15 AM,28.4,17.6,64,-9999,10.0,WSW,9.2,-,N/A,,Clear,240,2013-11-26 15:15:00
8:35 AM,30.2,19.4,64,-9999,10.0,SW,9.2,-,N/A,,Clear,220,2013-11-26 15:35:00
8:55 AM,30.2,19.4,64,-9999,10.0,SW,5.8,-,N/A,,Clear,230,2013-11-26 15:55:00
9:15 AM,30.2,19.4,64,30.31,10.0,SSW,6.9,-,N/A,,Clear,210,2013-11-26 16:15:00
9:35 AM,32.0,19.4,60,30.31,10.0,SSW,3.5,-,N/A,,Clear,200,2013-11-26 16:35:00
9:55 AM,32.0,19.4,60,30.31,10.0,South,5.8,-,N/A,,Clear,190,2013-11-26 16:55:00
10:15 AM,32.0,19.4,60,30.31,10.0,SSW,3.5,-,N/A,,Clear,200,2013-11-26 17:15:00
10:35 AM,32.0,19.4,60,30.31,10.0,SSW,3.5,-,N/A,,Clear,210,2013-11-26 17:35:00
10:55 AM,32.0,21.2,64,30.30,10.0,SW,4.6,-,N/A,,Clear,220,2013-11-26 17:55:00
11:15 AM,32.0,21.2,64,30.29,10.0,SSW,4.6,-,N/A,,Clear,200,2013-11-26 18:15:00
11:35 AM,32.0,21.2,64,30.29,10.0,SW,8.1,-,N/A,,Clear,220,2013-11-26 18:35:00
11:55 AM,32.0,21.2,64,30.27,10.0,SW,6.9,-,N/A,,Clear,220,2013-11-26 18:55:00
12:15 PM,32.0,23.0,69,30.27,10.0,SW,9.2,-,N/A,,Clear,220,2013-11-26 19:15:00
12:35 PM,32.0,23.0,69,30.26,10.0,SW,5.8,-,N/A,,Clear,220,2013-11-26 19:35:00
12:55 PM,35.6,23.0,60,30.25,10.0,SSW,3.5,-,N/A,,Clear,200,2013-11-26 19:55:00
1:15 PM,35.6,23.0,60,30.25,10.0,SSW,4.6,-,N/A,,Clear,210,2013-11-26 20:15:00
1:35 PM,35.6,23.0,60,30.25,10.0,SW,6.9,-,N/A,,Clear,220,2013-11-26 20:35:00
1:55 PM,33.8,23.0,65,30.24,10.0,SW,5.8,-,N/A,,Clear,220,2013-11-26 20:55:00
2:15 PM,35.6,23.0,60,30.23,10.0,Calm,Calm,-,N/A,,Clear,0,2013-11-26 21:15:00
2:35 PM,35.6,23.0,60,30.23,10.0,SW,3.5,-,N/A,,Clear,220,2013-11-26 21:35:00
2:55 PM,35.6,23.0,60,30.23,10.0,Calm,Calm,-,N/A,,Clear,0,2013-11-26 21:55:00
3:15 PM,35.6,23.0,60,30.23,10.0,WSW,4.6,-,N/A,,Clear,250,2013-11-26 22:15:00
3:35 PM,37.4,23.0,56,30.23,10.0,WSW,3.5,-,N/A,,Clear,250,2013-11-26 22:35:00
3:55 PM,37.4,23.0,56,30.23,10.0,Calm,Calm,-,N/A,,Clear,0,2013-11-26 22:55:00
4:15 PM,35.6,23.0,60,30.23,10.0,WSW,3.5,-,N/A,,Clear,250,2013-11-26 23:15:00
4:35 PM,35.6,21.2,56,30.23,10.0,Calm,Calm,-,N/A,,Clear,0,2013-11-26 23:35:00
4:55 PM,35.6,21.2,56,30.23,10.0,Calm,Calm,-,N/A,,Clear,0,2013-11-26 23:55:00
5:15 PM,35.6,19.4,52,30.23,10.0,Calm,Calm,-,N/A,,Clear,0,2013-11-27 00:15:00
5:35 PM,37.4,12.2,36,30.23,10.0,Calm,Calm,-,N/A,,Clear,0,2013-11-27 00:35:00
5:55 PM,37.4,10.4,33,30.23,10.0,Calm,Calm,-,N/A,,Clear,0,2013-11-27 00:55:00
6:15 PM,37.4,10.4,33,30.23,10.0,Calm,Calm,-,N/A,,Clear,0,2013-11-27 01:15:00
6:35 PM,35.6,10.4,35,30.23,10.0,West,3.5,-,N/A,,Clear,260,2013-11-27 01:35:00
6:55 PM,37.4,10.4,33,30.23,10.0,WSW,3.5,-,N/A,,Clear,250,2013-11-27 01:55:00
7:15 PM,37.4,10.4,33,30.23,10.0,Calm,Calm,-,N/A,,Clear,0,2013-11-27 02:15:00
7:35 PM,35.6,10.4,35,30.23,10.0,SW,4.6,-,N/A,,Clear,220,2013-11-27 02:35:00
7:55 PM,32.0,14.0,48,30.23,10.0,WSW,8.1,-,N/A,,Clear,250,2013-11-27 02:55:00
8:15 PM,32.0,17.6,55,30.21,10.0,West,4.6,-,N/A,,Clear,270,2013-11-27 03:15:00
8:35 PM,35.6,12.2,38,30.21,10.0,West,5.8,-,N/A,,Clear,260,2013-11-27 03:35:00
8:55 PM,35.6,14.0,41,30.21,10.0,West,9.2,-,N/A,,Clear,260,2013-11-27 03:55:00
9:15 PM,37.4,12.2,36,30.21,10.0,West,6.9,-,N/A,,Clear,260,2013-11-27 04:15:00
9:35 PM,35.6,12.2,38,30.21,10.0,West,9.2,-,N/A,,Clear,260,2013-11-27 04:35:00
9:55 PM,35.6,12.2,38,30.21,10.0,West,9.2,-,N/A,,Clear,260,2013-11-27 04:55:00
10:15 PM,35.6,12.2,38,30.20,10.0,West,10.4,17.3,N/A,,Clear,260,2013-11-27 05:15:00
10:35 PM,35.6,12.2,38,30.20,10.0,West,8.1,-,N/A,,Clear,260,2013-11-27 05:35:00
10:55 PM,33.8,12.2,41,30.19,10.0,West,9.2,-,N/A,,Clear,260,2013-11-27 05:55:00
11:15 PM,35.6,10.4,35,30.19,10.0,West,8.1,-,N/A,,Clear,260,2013-11-27 06:15:00
11:35 PM,35.6,10.4,35,30.18,10.0,West,11.5,16.1,N/A,,Clear,260,2013-11-27 06:35:00
11:55 PM,35.6,8.6,33,30.18,10.0,West,10.4,-,N/A,,Clear,260,2013-11-27 06:55:00